EW0214 Weather Reports


Display with metric or nautical units.
time (UTC)temp
F
wind
direction
speed
MPH
gust
MPH
rain 1hr
in
rain 24hr
in
rain mn
in
humidity
%
barometer
mb
20260903145539 85 211 3.0 12.0 0.00 0.00 0.00 72 1013.9
20260903145534 85 204 3.0 12.0 0.00 0.00 0.00 73 1013.9
20260903144524 85 171 2.0 12.0 0.00 0.00 0.00 74 1014.0
20260903144019 85 205 3.0 11.0 0.00 0.00 0.00 75 1013.9
20260903143513 84 142 3.0 11.0 0.00 0.00 0.00 75 1013.9
20260903143007 84 167 3.0 10.0 0.00 0.00 0.00 76 1013.9
20260903142501 83 199 3.0 11.0 0.00 0.00 0.00 77 1013.9
20260903141955 83 163 3.0 11.0 0.00 0.00 0.00 77 1014.0
20260903141950 83 180 3.0 11.0 0.00 0.00 0.00 78 1014.0
20260903140943 83 206 3.0 11.0 0.00 0.00 0.00 78 1014.0
20260903140708 83 177 2.0 8.0 0.00 0.00 0.00 79 1014.1
20260903135931 83 155 2.0 8.0 0.00 0.00 0.00 79 1014.0
20260903135425 82 123 2.0 9.0 0.00 0.00 0.00 79 1014.0
20260903134919 82 212 3.0 9.0 0.00 0.00 0.00 80 1014.0
20260903134412 82 296 3.0 7.0 0.00 0.00 0.00 80 1014.0
20260903133907 82 134 2.0 7.0 0.00 0.00 0.00 81 1014.0
20260903133401 82 140 2.0 9.0 0.00 0.00 0.00 81 1014.0
20260903132855 82 177 2.0 7.0 0.00 0.00 0.00 81 1014.2
20260903132349 81 171 3.0 9.0 0.00 0.00 0.00 81 1014.2
20260903132344 81 175 3.0 9.0 0.00 0.00 0.00 82 1014.2
20260903131337 81 193 3.0 7.0 0.00 0.00 0.00 82 1014.1
20260903130830 81 180 2.0 7.0 0.00 0.00 0.00 82 1014.2
20260903130325 81 145 3.0 7.0 0.00 0.00 0.00 82 1014.1
20260903130049 81 148 3.0 10.0 0.00 0.00 0.00 82 1014.2
20260903125313 81 186 3.0 10.0 0.00 0.00 0.00 82 1014.1
20260903124806 80 160 3.0 8.0 0.00 0.00 0.00 82 1014.0
20260903124301 80 193 3.0 8.0 0.00 0.00 0.00 83 1013.9
20260903123755 80 157 3.0 8.0 0.00 0.00 0.00 83 1013.9
20260903123249 80 140 2.0 7.0 0.00 0.00 0.00 83 1013.8
20260903122743 80 181 1.0 7.0 0.00 0.00 0.00 83 1013.8
20260903122509 80 178 2.0 6.0 0.00 0.00 0.00 83 1013.8
20260903121731 80 169 2.0 6.0 0.00 0.00 0.00 83 1013.8
20260903121225 80 169 2.0 7.0 0.00 0.00 0.00 83 1013.7
20260903120719 80 168 2.0 7.0 0.00 0.00 0.00 83 1013.8
20260903120213 80 181 2.0 8.0 0.00 0.00 0.00 83 1013.7
20260903115706 80 161 2.0 8.0 0.00 0.00 0.00 83 1013.7
20260903115207 80 170 2.0 7.0 0.00 0.00 0.00 84 1013.8
20260903114707 80 171 2.0 8.0 0.00 0.00 0.00 84 1013.6
20260903114205 80 144 1.0 8.0 0.00 0.00 0.00 84 1013.7
20260903113705 80 208 2.0 6.0 0.00 0.00 0.00 84 1013.5
20260903113205 80 148 2.0 5.0 0.00 0.00 0.00 84 1013.6
20260903112704 80 178 2.0 5.0 0.00 0.00 0.00 84 1013.6
20260903112204 80 167 2.0 5.0 0.00 0.00 0.00 84 1013.6
20260903111705 80 157 2.0 5.0 0.00 0.00 0.00 84 1013.6
20260903111203 80 159 2.0 5.0 0.00 0.00 0.00 84 1013.5
20260903110701 80 159 2.0 6.0 0.00 0.00 0.00 84 1013.5
20260903110159 80 175 2.0 7.0 0.00 0.00 0.00 84 1013.5
20260903105657 80 174 3.0 7.0 0.00 0.00 0.00 84 1013.5
20260903105156 80 148 2.0 6.0 0.00 0.00 0.00 84 1013.4
20260903104656 80 155 3.0 6.0 0.00 0.00 0.00 84 1013.4
20260903104154 80 166 3.0 9.0 0.00 0.00 0.00 84 1013.3
20260903103654 80 154 3.0 9.0 0.00 0.00 0.00 84 1013.3
20260903103155 80 173 3.0 9.0 0.00 0.00 0.00 84 1013.3
20260903102923 80 165 3.0 9.0 0.00 0.00 0.00 84 1013.2
20260903102150 80 184 3.0 10.0 0.00 0.00 0.00 83 1013.3
20260903101650 80 176 3.0 10.0 0.00 0.00 0.00 83 1013.2
20260903101151 80 182 3.0 10.0 0.00 0.00 0.00 83 1013.2
20260903100650 80 168 3.0 10.0 0.00 0.00 0.00 83 1013.2
20260903100421 80 175 3.0 7.0 0.00 0.00 0.00 83 1013.2
20260903095650 80 159 3.0 9.0 0.00 0.00 0.00 83 1013.3
20260903095151 80 178 3.0 9.0 0.00 0.00 0.00 83 1013.3
20260903094651 80 157 3.0 8.0 0.00 0.00 0.00 83 1013.5
20260903094145 80 150 4.0 8.0 0.00 0.00 0.00 83 1013.5
20260903093651 80 180 3.0 8.0 0.00 0.00 0.00 83 1013.4
20260903093647 80 161 4.0 8.0 0.00 0.00 0.00 83 1013.4
20260903092646 80 159 3.0 7.0 0.00 0.00 0.00 83 1013.5
20260903092145 80 205 3.0 7.0 0.00 0.00 0.00 82 1013.4
20260903091645 80 167 3.0 6.0 0.00 0.00 0.00 82 1013.5
20260903091145 80 153 3.0 6.0 0.00 0.00 0.00 82 1013.5
20260903090647 80 179 3.0 6.0 0.00 0.00 0.00 82 1013.5
20260903090147 80 166 3.0 7.0 0.00 0.00 0.00 82 1013.6
20260903085646 80 159 2.0 7.0 0.00 0.00 0.00 82 1013.6
20260903085151 81 149 3.0 10.0 0.00 0.00 0.00 82 1013.6
20260903085147 81 134 3.0 10.0 0.00 0.00 0.00 82 1013.6
20260903084146 81 148 3.0 7.0 0.00 0.00 0.00 81 1013.6
20260903083650 81 140 3.0 9.0 0.00 0.00 0.00 81 1013.5
20260903083645 81 150 3.0 9.0 0.00 0.00 0.00 81 1013.6
20260903082916 81 156 3.0 10.0 0.00 0.00 0.00 81 1013.4
20260903082145 81 180 4.0 10.0 0.00 0.00 0.00 81 1013.5
20260903081646 81 142 4.0 13.0 0.00 0.00 0.00 81 1013.5
20260903081146 81 169 4.0 13.0 0.00 0.00 0.00 80 1013.4
20260903080646 81 134 4.0 9.0 0.00 0.00 0.00 80 1013.4
20260903080146 81 175 4.0 8.0 0.00 0.00 0.00 80 1013.5
20260903075643 81 132 4.0 8.0 0.00 0.00 0.00 80 1013.5
20260903075414 81 182 4.0 10.0 0.00 0.00 0.00 79 1013.6
20260903074638 81 126 4.0 10.0 0.00 0.00 0.00 79 1013.7
20260903074132 82 167 4.0 10.0 0.00 0.00 0.00 79 1013.9
20260903073626 82 142 4.0 11.0 0.00 0.00 0.00 79 1013.9
20260903073347 82 146 4.0 10.0 0.00 0.00 0.00 78 1013.8
20260903073221 82 196 5.0 11.0 0.00 0.00 0.00 78 1013.8
20260903072108 82 146 4.0 9.0 0.00 0.00 0.00 77 1013.8
20260903071602 82 167 4.0 9.0 0.00 0.00 0.00 77 1013.7
20260903071055 82 175 3.0 11.0 0.00 0.00 0.00 77 1013.7
20260903070821 82 153 4.0 11.0 0.00 0.00 0.00 77 1013.8
20260903070044 82 147 5.0 11.0 0.00 0.00 0.00 77 1013.8
20260903065538 82 188 5.0 12.0 0.00 0.00 0.00 76 1013.8
20260903065032 82 172 5.0 12.0 0.00 0.00 0.00 76 1013.9
20260903064528 83 134 5.0 14.0 0.00 0.00 0.00 75 1013.9
20260903064020 83 170 5.0 14.0 0.00 0.00 0.00 75 1013.9
20260903063514 83 150 5.0 12.0 0.00 0.00 0.00 74 1014.0
20260903063008 83 148 6.0 12.0 0.00 0.00 0.00 74 1014.0
20260903062503 83 145 6.0 11.0 0.00 0.00 0.00 73 1013.9
20260903061956 83 153 5.0 11.0 0.00 0.00 0.00 73 1013.9
20260903061450 83 136 5.0 12.0 0.00 0.00 0.00 73 1013.9
20260903060944 83 150 5.0 12.0 0.00 0.00 0.00 72 1013.9
20260903060438 83 186 5.0 11.0 0.00 0.00 0.00 72 1013.9
20260903055935 83 163 4.0 11.0 0.00 0.00 0.00 71 1014.1
20260903055435 84 184 4.0 9.0 0.00 0.00 0.00 70 1014.0
20260903054935 84 171 5.0 10.0 0.00 0.00 0.00 70 1014.0
20260903054435 84 141 6.0 14.0 0.00 0.00 0.00 69 1013.9
20260903053942 84 132 6.0 14.0 0.00 0.00 0.00 68 1013.9
20260903053937 84 152 5.0 14.0 0.00 0.00 0.00 69 1013.9
20260903052939 84 150 7.0 17.0 0.00 0.00 0.00 68 1013.9
20260903052935 84 142 7.0 17.0 0.00 0.00 0.00 68 1013.8
20260903051936 84 161 7.0 14.0 0.00 0.00 0.00 67 1013.8
20260903051436 85 199 8.0 15.0 0.00 0.00 0.00 67 1013.9
20260903050935 85 124 8.0 15.0 0.00 0.00 0.00 66 1013.8
20260903050437 85 165 8.0 16.0 0.00 0.00 0.00 66 1013.8
20260903050206 85 159 7.0 16.0 0.00 0.00 0.00 65 1013.9
20260903045434 85 148 7.0 16.0 0.00 0.00 0.00 64 1013.7
20260903044934 85 103 7.0 16.0 0.00 0.00 0.00 64 1013.7
20260903044428 85 121 7.0 14.0 0.00 0.00 0.00 64 1013.9
20260903043922 86 128 7.0 14.0 0.00 0.00 0.00 64 1013.9
20260903043416 86 142 6.0 14.0 0.00 0.00 0.00 64 1013.7
20260903042910 86 147 6.0 11.0 0.00 0.00 0.00 64 1013.7
20260903042404 86 125 6.0 12.0 0.00 0.00 0.00 64 1013.5
20260903041858 86 121 6.0 12.0 0.00 0.00 0.00 64 1013.5
20260903041623 86 135 6.0 10.0 0.00 0.00 0.00 64 1013.5
20260903040845 86 150 5.0 10.0 0.00 0.00 0.00 63 1013.5
20260903040340 87 119 5.0 11.0 0.00 0.00 0.00 63 1013.4
20260903035832 87 95 4.0 11.0 0.00 0.00 0.00 63 1013.4
20260903035558 87 147 3.0 9.0 0.00 0.00 0.00 62 1013.4
20260903034820 87 111 3.0 9.0 0.00 0.00 0.00 62 1013.3
20260903034544 87 125 4.0 11.0 0.00 0.00 0.00 61 1013.3
20260903034039 88 141 4.0 11.0 0.00 0.00 0.00 60 1013.4
20260903033302 88 134 4.0 10.0 0.00 0.00 0.00 60 1013.3
20260903032756 88 149 5.0 13.0 0.00 0.00 0.00 59 1013.3
20260903032250 88 131 5.0 13.0 0.00 0.00 0.00 59 1013.3
20260903031744 88 159 4.0 9.0 0.00 0.00 0.00 59 1013.1
20260903031238 88 128 3.0 9.0 0.00 0.00 0.00 59 1013.0
20260903031002 89 141 3.0 5.0 0.00 0.00 0.00 59 1012.8
20260903030226 89 142 3.0 6.0 0.00 0.00 0.00 59 1012.6
20260903025720 89 113 2.0 6.0 0.00 0.00 0.00 59 1012.4
20260903025444 89 135 2.0 5.0 0.00 0.00 0.00 58 1012.4
20260903024707 89 135 2.0 5.0 0.00 0.00 0.00 58 1012.2
20260903024202 89 140 2.0 5.0 0.00 0.00 0.00 57 1012.2
20260903023655 89 141 2.0 6.0 0.00 0.00 0.00 57 1012.2
20260903023149 89 142 2.0 6.0 0.00 0.00 0.00 57 1012.1
20260903022644 90 142 3.0 6.0 0.00 0.00 0.00 56 1012.1
20260903022408 90 123 3.0 6.0 0.00 0.00 0.00 56 1011.9
20260903021631 90 144 3.0 6.0 0.00 0.00 0.00 55 1011.7
20260903021126 91 117 2.0 6.0 0.00 0.00 0.00 54 1011.6
20260903020850 91 22 1.0 3.0 0.00 0.00 0.00 54 1011.5
20260903020114 91 22 1.0 3.0 0.00 0.00 0.00 54 1011.4
20260903015608 92 21 2.0 7.0 0.00 0.00 0.00 54 1011.3
20260903015102 92 19 2.0 7.0 0.00 0.00 0.00 53 1011.2
20260903014557 92 24 3.0 8.0 0.00 0.00 0.00 53 1011.1
20260903014321 92 15 4.0 8.0 0.00 0.00 0.00 53 1011.0
20260903013816 92 5 3.0 8.0 0.00 0.00 0.00 53 1011.1
20260903013038 92 29 3.0 6.0 0.00 0.00 0.00 53 1011.1
20260903012803 92 53 2.0 6.0 0.00 0.00 0.00 52 1011.1
20260903012025 92 27 2.0 6.0 0.00 0.00 0.00 52 1011.2
20260903011520 93 87 2.0 6.0 0.00 0.00 0.00 51 1011.2
20260903011014 93 28 3.0 8.0 0.00 0.00 0.00 51 1011.1
20260903010740 93 5 4.0 11.0 0.00 0.00 0.00 51 1011.0
20260903010002 93 39 3.0 11.0 0.00 0.00 0.00 50 1011.0
20260903005727 94 30 3.0 10.0 0.00 0.00 0.00 50 1011.0
20260903004949 94 62 1.0 10.0 0.00 0.00 0.00 49 1010.9
20260903004444 95 209 0.0 0.0 0.00 0.00 0.00 49 1011.0
20260903004206 95 209 0.0 0.0 0.00 0.00 0.00 47 1010.9
20260903004039 95 209 0.0 0.0 0.00 0.00 0.00 48 1010.9
20260903002926 96 209 0.0 1.0 0.00 0.00 0.00 47 1011.0
20260903002420 96 209 0.0 2.0 0.00 0.00 0.00 47 1010.9
20260903001914 96 209 0.0 2.0 0.00 0.00 0.00 47 1011.0
20260903001411 96 209 0.0 1.0 0.00 0.00 0.00 48 1011.0
20260903001405 96 209 0.0 1.0 0.00 0.00 0.00 47 1011.0
20260903000356 96 209 0.0 1.0 0.00 0.00 0.00 45 1011.0
20260903000120 96 209 0.0 3.0 0.00 0.00 0.00 45 1011.0
20260902235344 96 209 1.0 3.0 0.00 0.00 0.00 45 1011.1
20260902234838 96 209 1.0 3.0 0.00 0.00 0.00 44 1011.1
20260902234332 97 209 0.0 3.0 0.00 0.00 0.00 45 1011.0
20260902233826 97 186 0.0 1.0 0.00 0.00 0.00 46 1011.1
20260902233320 97 186 0.0 2.0 0.00 0.00 0.00 45 1011.0
20260902232814 97 186 0.0 2.0 0.00 0.00 0.00 45 1011.1
20260902232539 97 186 1.0 3.0 0.00 0.00 0.00 45 1011.1
20260902232032 97 186 1.0 3.0 0.00 0.00 0.00 44 1011.1
20260902231528 97 186 0.0 3.0 0.00 0.00 0.00 45 1011.1
20260902230756 97 180 1.0 4.0 0.00 0.00 0.00 46 1011.0
20260902230253 97 180 1.0 4.0 0.00 0.00 0.00 44 1011.0
20260902230024 97 184 1.0 3.0 0.00 0.00 0.00 45 1010.9
20260902225250 97 184 1.0 3.0 0.00 0.00 0.00 45 1011.0
20260902225020 97 182 1.0 2.0 0.00 0.00 0.00 46 1011.0
20260902224248 97 182 1.0 6.0 0.00 0.00 0.00 48 1011.0
20260902223756 97 184 1.0 4.0 0.00 0.00 0.00 46 1011.0
20260902223750 97 175 1.0 6.0 0.00 0.00 0.00 47 1011.0
20260902223249 97 185 1.0 4.0 0.00 0.00 0.00 46 1011.0
20260902222248 97 186 1.0 4.0 0.00 0.00 0.00 46 1011.1
20260902221748 97 187 1.0 3.0 0.00 0.00 0.00 46 1011.1
20260902221250 97 178 1.0 3.0 0.00 0.00 0.00 47 1011.2
20260902220746 97 175 1.0 3.0 0.00 0.00 0.00 47 1011.3
20260902220245 97 174 0.0 3.0 0.00 0.00 0.00 47 1011.3
20260902215744 98 174 0.0 2.0 0.00 0.00 0.00 48 1011.4
20260902215249 98 173 1.0 3.0 0.00 0.00 0.00 48 1011.2
20260902215245 98 174 0.0 2.0 0.00 0.00 0.00 48 1011.3
20260902214246 98 173 0.0 3.0 0.00 0.00 0.00 48 1011.3
20260902214015 98 170 0.0 1.0 0.00 0.00 0.00 48 1011.4
20260902213244 98 170 0.0 1.0 0.00 0.00 0.00 47 1011.4
20260902212746 98 170 0.0 0.0 0.00 0.00 0.00 47 1011.5
20260902212522 98 170 0.0 2.0 0.00 0.00 0.00 46 1011.6
20260902212245 98 170 0.0 0.0 0.00 0.00 0.00 46 1011.5
20260902211245 98 170 0.0 2.0 0.00 0.00 0.00 46 1011.8
20260902210744 98 170 0.0 1.0 0.00 0.00 0.00 47 1011.7
20260902210244 98 170 0.0 2.0 0.00 0.00 0.00 47 1011.7
20260902205745 98 170 0.0 2.0 0.00 0.00 0.00 46 1011.8
20260902205245 99 170 0.0 2.0 0.00 0.00 0.00 46 1011.9
20260902205015 98 170 1.0 5.0 0.00 0.00 0.00 45 1011.8
20260902204519 98 170 1.0 5.0 0.00 0.00 0.00 44 1012.0
20260902203738 98 164 1.0 5.0 0.00 0.00 0.00 45 1012.1
20260902203232 98 161 2.0 5.0 0.00 0.00 0.00 44 1012.2
20260902202727 98 165 2.0 5.0 0.00 0.00 0.00 44 1012.3
20260902202220 98 165 1.0 5.0 0.00 0.00 0.00 46 1012.3
20260902201715 97 165 0.0 4.0 0.00 0.00 0.00 49 1012.3
20260902201710 97 154 0.0 0.0 0.00 0.00 0.00 49 1012.4
20260902200703 97 154 0.0 0.0 0.00 0.00 0.00 48 1012.4
20260902200157 98 154 0.0 3.0 0.00 0.00 0.00 47 1012.4
20260902195651 98 154 0.0 3.0 0.00 0.00 0.00 47 1012.6
20260902195145 98 15 0.0 2.0 0.00 0.00 0.00 47 1012.6
20260902194639 98 15 1.0 2.0 0.00 0.00 0.00 47 1012.8
20260902194133 99 15 0.0 2.0 0.00 0.00 0.00 46 1012.8
20260902193627 99 15 0.0 2.0 0.00 0.00 0.00 45 1012.8
20260902193121 99 12 0.0 1.0 0.00 0.00 0.00 46 1012.9
20260902192615 99 13 1.0 4.0 0.00 0.00 0.00 46 1013.1
20260902192108 100 12 1.0 4.0 0.00 0.00 0.00 45 1013.1
20260902191833 100 12 1.0 3.0 0.00 0.00 0.00 46 1013.2
20260902191057 100 12 0.0 1.0 0.00 0.00 0.00 45 1013.2
20260902190823 100 13 0.0 1.0 0.00 0.00 0.00 43 1013.3
20260902190044 101 13 0.0 2.0 0.00 0.00 0.00 43 1013.4
20260902185537 101 13 0.0 2.0 0.00 0.00 0.00 44 1013.3
20260902185031 101 13 0.0 2.0 0.00 0.00 0.00 43 1013.5
20260902184528 101 13 1.0 5.0 0.00 0.00 0.00 42 1013.6
20260902184249 101 13 1.0 5.0 0.00 0.00 0.00 44 1013.6
20260902183513 101 329 1.0 3.0 0.00 0.00 0.00 42 1013.7
20260902183007 100 329 1.0 3.0 0.00 0.00 0.00 43 1013.8
20260902182501 100 330 0.0 2.0 0.00 0.00 0.00 46 1013.9
20260902181955 100 331 1.0 6.0 0.00 0.00 0.00 44 1014.0
20260902181448 100 331 2.0 6.0 0.00 0.00 0.00 46 1014.0
20260902180942 100 191 2.0 5.0 0.00 0.00 0.00 45 1014.1
20260902180438 99 190 2.0 6.0 0.00 0.00 0.00 45 1014.2
20260902180432 99 237 1.0 6.0 0.00 0.00 0.00 46 1014.4
20260902175425 98 342 1.0 6.0 0.00 0.00 0.00 46 1014.5
20260902174918 98 355 1.0 6.0 0.00 0.00 0.00 47 1014.6
20260902174413 98 309 1.0 4.0 0.00 0.00 0.00 46 1014.7
20260902173906 97 309 2.0 5.0 0.00 0.00 0.00 47 1014.9
20260902173401 97 173 1.0 5.0 0.00 0.00 0.00 48 1014.9
20260902172854 96 10 1.0 4.0 0.00 0.00 0.00 50 1015.0
20260902172349 96 186 1.0 4.0 0.00 0.00 0.00 51 1015.2
20260902171843 96 186 1.0 3.0 0.00 0.00 0.00 49 1015.3
20260902171337 96 182 1.0 3.0 0.00 0.00 0.00 50 1015.4
20260902170831 96 182 1.0 6.0 0.00 0.00 0.00 50 1015.4
20260902170555 95 169 1.0 6.0 0.00 0.00 0.00 49 1015.4
20260902170051 95 154 1.0 6.0 0.00 0.00 0.00 51 1015.5
20260902165313 95 59 2.0 7.0 0.00 0.00 0.00 52 1015.4
20260902164807 94 173 2.0 7.0 0.00 0.00 0.00 52 1015.5
20260902164300 94 203 1.0 4.0 0.00 0.00 0.00 53 1015.5
20260902164025 93 205 1.0 3.0 0.00 0.00 0.00 54 1015.7
20260902163249 93 217 1.0 3.0 0.00 0.00 0.00 55 1015.6
20260902162742 92 240 1.0 4.0 0.00 0.00 0.00 55 1015.7
20260902162237 92 239 1.0 4.0 0.00 0.00 0.00 55 1015.8
20260902161731 92 332 1.0 2.0 0.00 0.00 0.00 58 1015.8
20260902161225 91 332 1.0 3.0 0.00 0.00 0.00 57 1015.8
20260902160719 91 332 1.0 3.0 0.00 0.00 0.00 59 1015.8
20260902160216 90 333 0.0 2.0 0.00 0.00 0.00 60 1015.8
20260902160211 90 333 0.0 3.0 0.00 0.00 0.00 60 1015.8
20260902155200 89 333 1.0 5.0 0.00 0.00 0.00 61 1015.8
20260902154655 89 333 1.0 5.0 0.00 0.00 0.00 63 1015.8
20260902154148 88 188 1.0 3.0 0.00 0.00 0.00 64 1015.9
20260902153915 88 187 1.0 5.0 0.00 0.00 0.00 65 1015.8
20260902153137 87 188 1.0 5.0 0.00 0.00 0.00 66 1015.9
20260902152630 87 191 1.0 3.0 0.00 0.00 0.00 67 1015.9
20260902152125 86 190 1.0 3.0 0.00 0.00 0.00 69 1015.9
20260902151619 85 277 1.0 3.0 0.00 0.00 0.00 71 1015.8
20260902151113 84 288 0.0 3.0 0.00 0.00 0.00 73 1015.9
20260902150607 84 228 0.0 3.0 0.00 0.00 0.00 74 1015.8